Powrót do katalogu

STARLINK-1321

AktywnyŁącznośćVLEO
NORAD 45573·PAYLOAD·🇺🇸 United States

Wystrzelony Apr 22, 2020 z Cape Canaveral Space Force Station

Loading…

Następne Przeloty (najbliższe 24 godziny)

TLE

ŚwieżeSource: CelesTrak SupGP

Epoka: Sep 14, 2026, 13:41 UTC

1 45573C 20025AU  26257.57062500  .00043537  00000+0  21443-3 0  2575
2 45573  53.0340 210.8215 0006045  69.8706  50.1509 15.81385571    16

Śledź STARLINK-1321 w czasie rzeczywistym z AllMySat

Download on the App Store